Location: Unspecified
(0.0000°N, 0.0000°E)
Time: 17:30:04
(UTC+00:00)

Vanguard 2 Rocket - All Passes

Search period start: 30 October 2014 00:00
Search period end: 09 November 2014 00:00
Orbit: 554 x 3335 km, 32.9° (Epoch: 29 October)

Date Brightness Start Highest point End Pass type
(mag) Time Alt. Az. Time Alt. Az. Time Alt. Az.
30 Oct - 05:07:19 10° NNE 05:09:37 11° NE 05:12:14 10° NE visible
30 Oct - 07:14:52 10° NW 07:23:58 57° NE 07:39:51 10° ESE daylight
30 Oct - 09:28:16 10° WNW 09:40:45 58° SSW 10:00:00 10° SE daylight
30 Oct - 11:47:31 10° WSW 12:01:38 28° SSW 12:17:43 10° SSE daylight
30 Oct - 14:14:17 10° SW 14:26:03 18° S 14:36:33 10° SSE daylight
30 Oct - 16:37:28 10° SSW 16:49:17 22° SSE 16:57:51 10° ESE daylight
30 Oct - 18:55:25 10° SW 19:07:47 47° SSE 19:14:49 10° E visible
30 Oct - 21:13:59 10° WSW 21:21:58 39° NW 21:26:55 10° NNE visible
31 Oct - 06:17:31 10° NNW 06:24:55 36° NE 06:37:07 10° ESE daylight
31 Oct - 08:29:24 10° WNW 08:40:12 74° SW 08:58:39 10° SE daylight
31 Oct - 10:46:12 10° W 10:59:36 34° SSW 11:16:58 10° SE daylight
31 Oct - 13:10:30 10° SW 13:23:09 19° S 13:35:31 10° SSE daylight
31 Oct - 15:35:33 10° SSW 15:47:42 20° S 15:57:14 10° SE daylight
31 Oct - 17:54:30 10° SW 18:07:57 37° SSE 18:16:07 10° E visible
31 Oct - 20:12:46 10° WSW 20:23:38 71° NW 20:29:38 10° NE visible
01 Nov - 05:20:54 10° N 05:26:11 21° NE 05:33:43 10° E visible
01 Nov - 07:31:09 10° NW 07:40:20 84° NE 07:56:58 10° SE daylight
01 Nov - 09:45:57 10° W 09:58:07 42° SSW 10:15:59 10° SE daylight
01 Nov - 12:07:24 10° WSW 12:20:19 22° SSW 12:34:23 10° SSE daylight
01 Nov - 14:33:06 10° SSW 14:45:24 19° S 14:55:57 10° SE daylight
01 Nov - 16:53:21 10° SW 17:07:28 31° SSE 17:16:49 10° ESE daylight
01 Nov - 19:11:36 10° SW 19:24:48 77° SSE 19:31:54 10° ENE visible
01 Nov - 21:32:22 10° W 21:38:10 21° NW 21:42:20 10° N visible
02 Nov - 06:33:24 10° NW 06:41:07 58° NE 06:54:58 10° ESE daylight
02 Nov - 08:46:34 10° WNW 08:57:15 52° SSW 09:14:48 10° SE daylight
02 Nov - 11:05:21 10° WSW 11:17:53 26° SSW 11:33:12 10° SSE daylight
02 Nov - 13:30:17 10° SW 13:42:35 18° S 13:54:10 10° SE daylight
02 Nov - 15:51:58 10° SSW 16:06:18 26° SSE 16:16:46 10° ESE daylight
02 Nov - 18:10:24 10° SW 18:25:19 57° SSE 18:33:42 10° ENE visible
02 Nov - 20:30:10 10° WSW 20:39:54 40° NW 20:45:43 10° NNE visible
03 Nov - 05:36:11 10° NNW 05:42:25 35° NE 05:52:40 10° ESE daylight
03 Nov - 07:47:53 10° WNW 07:57:03 68° SSW 08:13:26 10° SE daylight
03 Nov - 10:04:24 10° WSW 10:16:00 30° SSW 10:31:57 10° SE daylight
03 Nov - 12:27:29 10° SW 12:39:33 19° S 12:52:07 10° SE daylight
03 Nov - 14:50:22 10° SSW 15:04:27 23° SSE 15:15:49 10° ESE daylight
03 Nov - 17:09:10 10° SW 17:25:11 44° SSE 17:34:56 10° E daylight
03 Nov - 19:28:20 10° WSW 19:41:20 67° NW 19:48:25 10° NE visible
04 Nov - 04:39:46 10° N 04:44:00 18° NE 04:49:47 10° E visible
04 Nov - 06:49:45 10° NW 06:57:31 89° NE 07:11:58 10° SE daylight
04 Nov - 09:04:24 10° W 09:14:47 37° SSW 09:30:42 10° SE daylight
04 Nov - 11:25:10 10° SW 11:36:44 21° S 11:50:05 10° SSE daylight
04 Nov - 13:48:36 10° SSW 14:01:57 20° S 14:13:57 10° SE daylight
04 Nov - 16:07:57 10° SW 16:24:24 36° SSE 16:35:30 10° E daylight
04 Nov - 18:26:41 10° SW 18:42:13 85° SE 18:50:38 10° ENE visible
04 Nov - 20:48:40 10° W 20:56:05 23° NW 21:01:10 10° N visible
05 Nov - 05:52:06 10° NW 05:58:37 60° NE 06:10:22 10° ESE daylight
05 Nov - 08:05:11 10° W 08:14:13 45° SSW 08:29:29 10° SE daylight
05 Nov - 10:23:39 10° WSW 10:34:25 23° SSW 10:48:12 10° SSE daylight
05 Nov - 12:46:45 10° SW 12:59:01 19° S 13:11:17 10° SE daylight
05 Nov - 15:06:45 10° SSW 15:22:56 30° SSE 15:35:13 10° ESE daylight
05 Nov - 17:25:11 10° SW 17:42:26 65° SSE 17:52:20 10° ENE daylight
05 Nov - 19:45:52 10° WSW 19:57:33 41° NW 20:04:26 10° NNE visible
06 Nov - 04:54:57 10° NNW 05:00:12 34° NE 05:08:37 10° ESE visible
06 Nov - 07:06:36 10° WNW 07:14:20 59° SSW 07:28:19 10° SE daylight
06 Nov - 09:23:01 10° WSW 09:32:47 26° SSW 09:46:36 10° SSE daylight
06 Nov - 11:44:58 10° SW 11:56:01 18° S 12:08:13 10° SE daylight
06 Nov - 14:05:38 10° SSW 14:20:52 25° SSE 14:33:54 10° ESE daylight
06 Nov - 16:23:52 10° SW 16:41:58 51° SSE 16:53:26 10° ENE daylight
06 Nov - 18:43:33 10° WSW 18:58:40 64° NW 19:07:03 10° NE visible
06 Nov - 21:09:17 10° WNW 21:12:29 12° NW 21:15:13 10° NNW visible
07 Nov - 03:58:39 10° N 04:02:00 16° NE 04:06:19 10° E visible
07 Nov - 06:08:31 10° WNW 06:15:05 83° SW 06:27:14 10° SE daylight
07 Nov - 08:23:12 10° W 08:31:52 31° SSW 08:45:16 10° SE daylight
07 Nov - 10:43:27 10° SW 10:53:21 18° S 11:05:16 10° SSE daylight
07 Nov - 13:04:36 10° SSW 13:18:17 22° SSE 13:31:25 10° ESE daylight
07 Nov - 15:22:46 10° SW 15:40:52 41° SSE 15:53:48 10° E daylight
07 Nov - 17:41:35 10° SW 17:59:12 89° NW 18:09:08 10° NE visible
07 Nov - 20:04:30 10° W 20:13:45 25° NW 20:19:56 10° N visible
08 Nov - 05:10:53 10° NW 05:16:25 63° NE 05:26:11 10° ESE visible
08 Nov - 07:24:04 10° W 07:31:37 38° SSW 07:44:14 10° SE daylight
08 Nov - 09:42:26 10° SW 09:51:17 19° S 10:02:48 10° SSE daylight
08 Nov - 12:03:42 10° SSW 12:15:25 19° S 12:27:54 10° SE daylight
08 Nov - 14:21:55 10° SW 14:39:12 33° SSE 14:53:13 10° E daylight
08 Nov - 16:39:57 10° SW 16:59:04 71° SSE 17:10:41 10° ENE daylight
08 Nov - 19:01:12 10° WSW 19:14:53 41° NW 19:23:01 10° NNE visible
